USA 164 (MILSTAR-2 3)

Last updated on Jan. 21, 2021, 6:16 a.m. UTC

1 27168U 02001A   21020.79684701  .00000106  00000-0  00000-0 0  9991
2 27168   8.9839  31.0575 0002540 275.0109 120.0987  1.00274555 13177
UTC
Height (km)
Latitude
Longitude
Inclination
Orbital Period
UTC large
Height (km)
Speed (km/s)
/
Latitude / Longitude
Inclination (degrees)
Orbital Period (minutes)
Azimuth
Elevation
Range (km)
Doppler Factor
iOS Compass Heading
iOS Angle

Next 30 passes for location: Hong Kong

Rise time Rise Azimuth (degrees) Set time Set Azimuth (degrees) Duration Max altitude (degrees)

No matching passes for this satellites